User: anonymous
Location: Caltech
(34.1382°N, 118.1253°W)
Time: 20:20:56
(UTC-07:00)
Language:

Cosmos 1626 - Orbit

View from above orbital plane
View from above orbital plane
View from above satellite
View from above satellite

Ground track
Ground track

The orbit data is extracted from the following two-line orbital elements,

1 15494U 85009A   14211.47110888  .00002490  00000-0  13046-3 0  6181
2 15494 082.4811 218.7467 0004538 122.3250 350.7246 15.15364191608871
Epoch (UTC): 30 July 2014 11:18:23
Eccentricity: 0.0004538
inclination: 82.4811°
perigee height: 517 km
apogee height: 523 km
right ascension of ascending node: 218.7467°
argument of perigee: 122.3250°
revolutions per day: 15.15364191
mean anomaly at epoch: 350.7246°
orbit number at epoch: 60887

The dashed part of the orbit path shows where the satellite is in the earth's shadow,  

DLR